Regional Weather Roundup
Issued by NWS

Home | Current Version | Previous Version | Text Only | Print | Product List | Glossary On
Versions: 1 2 3 4 5 6 7 8 9 10 11 12 13 14 15 16 17 18 19 20 21 22 23 24 25 26 27 28 29 30 31 32 33 34 35 36 37 38 39 40 41 42 43 44 45 46 47 48 49 50
944
ASUS42 KFFC 300403
RWRGA
WEATHER ROUNDUP FOR GEORGIA
NATIONAL WEATHER SERVICE PEACHTREE CITY GA
1200 AM EDT SAT JUL 30 2016

NOTE: "FAIR" INDICATES FEW OR NO CLOUDS BELOW 12,000 FEET WITH NO
SIGNIFICANT WEATHER AND/OR OBSTRUCTIONS TO VISIBILITY.

* = USE WITH CAUTION. THE STATIONS MARKED WITH AN ASTERISK MAY NOT
REPORT WEATHER SUCH AS PRECIPITATION, FOG, OR THUNDER AND ARE NOT
QUALITY CONTROLLED BY NWS.

THE REMARK "TC" DENOTES TEMPERATURE READING IN DEGREES CELSIUS.

GAZ001>058-300500-
NORTH GEORGIA

CITY           SKY/WX    TMP DP  RH WIND       PRES   REMARKS
ATLANTA        PTCLDY    81  71  71 NW5       30.03S
ATHENS         CLOUDY    78  73  84 W3        30.02S
CHAMBLEE       MOCLDY    77  72  84 CALM      30.03S
PEACHTREE CITY CLEAR     76  71  85 CALM      30.03S
ROME           CLOUDY    76  72  87 CALM      30.01F
WEST ATLANTA   CLOUDY    77  72  84 CALM      30.02S
GAINESVILLE    CLOUDY    76  72  87 W5        30.06S
CARTERSVILLE   CLOUDY    77  74  90 CALM      30.03S


CITY           SKY/WX    TMP DP  RH WIND       PRES   REMARKS
DALTON*        CLOUDY    73  72  94 CALM      30.02F
MARIETTA       CLOUDY    77  71  81 W1        30.03F
CANTON*        MOCLDY    73  72  94 CALM      30.05F FOG
BLAIRSVILLE*     N/A    N/A N/A N/A MISG      30.08F
$$

GAZ059>098-102>109-300500-
CENTRAL GEORGIA

CITY           SKY/WX    TMP DP  RH WIND       PRES   REMARKS
AUGUSTA-BUSH   PTCLDY    78  70  76 CALM      29.97S
AUGUSTA-DANIEL CLEAR     86  69  56 NW7       29.99S HX  90
COLUMBUS       CLOUDY    83  71  67 W9        30.02S
MACON          CLEAR     83  67  58 W6        30.00R
ROBINS AFB     CLEAR     87  69  56 W13       29.99R HX  91


CITY           SKY/WX    TMP DP  RH WIND       PRES   REMARKS
LAGRANGE*      CLOUDY    76  76 100 CALM      30.04S
MILLEDGEVILLE* CLEAR     82  73  74 CALM      30.00S
$$

GAZ099>101-110>166-300500-
SOUTH GEORGIA

CITY           SKY/WX    TMP DP  RH WIND       PRES   REMARKS
SAVANNAH       CLEAR     85  76  74 S9        29.98S HX  94
VALDOSTA       CLEAR     77  73  87 CALM      30.02F
ALMA           CLEAR     83  70  64 W6        30.01S
ST SIMONS      CLEAR     85  76  74 SW10      30.00S HX  94
ALBANY         CLEAR     81  72  74 SW6       30.04S
HUNTER AFB     CLEAR     84  79  85 SW7       29.96S HX  97
MOODY AFB      PTCLDY    81  71  71 W6        30.02S
BRUNSWICK      CLEAR     86  79  79 SW6       30.00S HX  99


CITY           SKY/WX    TMP DP  RH WIND       PRES   REMARKS
BAINBRIDGE*    CLEAR     81  73  78 CALM      30.03S
MOULTRIE*      CLEAR     81  73  78 CALM      30.04S
VIDALIA*       CLEAR     86  66  51 W6        30.00S
WAYCROSS*      CLEAR     85  75  72 W6        30.01S HX  94
DOUGLAS*       CLEAR     82  70  65 W6        30.03S
$$




USA.gov is the U.S. government's official web portal to all federal, state and local government web resources and services.